Weather History for Austin Bergstrom, TX

Change the Weather History Date:

Saturday, March 22, 2014

  Actual Average Record
Temperature  
Mean Temperature 69 °F 61 °F  
Max Temperature 77 °F 74 °F 98 °F (1971)
Min Temperature 60 °F 48 °F 30 °F (2010)
Degree Days  
Heating Degree Days 0 6  
Month to date heating degree days 233 180  
Since 1 July heating degree days 2050 1795  
Cooling Degree Days 4 2  
Month to date cooling degree days 9 23  
Year to date cooling degree days 26 39  
Growing Degree Days 20 (Base 50)    
Moisture  
Dew Point 63 °F    
Average Humidity 85    
Maximum Humidity 100    
Minimum Humidity 69    
Precipitation  
Precipitation T in 0.09 in 0.56 in (1953)
Month to date precipitation 1.19 1.84  
Year to date precipitation 2.28 6.44  
Snow  
Snow 0.00 in - - ()
Month to date snowfall 0.0  
Since 1 July snowfall T  
Snow Depth 0.00 in    
Sea Level Pressure  
Sea Level Pressure 29.94 in    
Wind  
Wind Speed 6 mph (South)    
Max Wind Speed 17 mph    
Max Gust Speed 23 mph    
Visibility 7 miles    
Events      
T = Trace of Precipitation, MM = Missing Value Source: NWS Daily Summary

Daily Weather History Graph

Daily Weather History Graph

Search for Another Location

Airport:

Trip Planner

Search our weather history database for the weather conditions in past years. The results will help you decide how hot, cold, wet, or windy it might be!

Date:

Astronomy

Mar. 22, 2014 Rise Set
Actual Time 7:32 AM CDT 7:43 PM CDT
Civil Twilight 7:08 AM CDT 8:07 PM CDT
Nautical Twilight 6:40 AM CDT 8:35 PM CDT
Astronomical Twilight 6:12 AM CDT 9:03 PM CDT
Moon 12:44 AM CDT (3/22) 11:37 AM CDT (3/22)
Length of Visible Light 12h 59m
Length of Day
12h 11m
Waning Gibbous, 65% of the Moon is Illuminated
Mar 22
Waning Gibbous
Mar 23
Last Quarter
Mar 30
New
Apr 7
First Quarter
Apr 15
Full

Hourly Weather History & Observations

Time (CDT) Temp. Dew Point Humidity Pressure Visibility Wind Dir Wind Speed Gust Speed Precip Events Conditions
12:53 AM 63.0 °F 60.1 °F 90% 29.91 in 10.0 mi South 5.8 mph - N/A   Overcast
1:49 AM 64.4 °F 60.8 °F 88% 29.92 in 10.0 mi South 6.9 mph - N/A   Overcast
1:53 AM 64.0 °F 61.0 °F 90% 29.90 in 10.0 mi South 8.1 mph - N/A   Overcast
2:53 AM 64.0 °F 62.1 °F 93% 29.89 in 4.0 mi South 10.4 mph - N/A   Overcast
3:26 AM 64.0 °F 63.0 °F 96% 29.90 in 0.5 mi South 8.1 mph - N/A   Overcast
3:53 AM 64.0 °F 63.0 °F 96% 29.89 in 0.5 mi South 9.2 mph - 0.00 in   Light Drizzle
4:06 AM 64.0 °F 63.0 °F 96% 29.90 in 0.2 mi South 9.2 mph - 0.00 in   Light Drizzle
4:53 AM 64.0 °F 64.0 °F 100% 29.89 in 0.2 mi South 5.8 mph - 0.00 in   Light Drizzle
5:53 AM 64.9 °F 64.0 °F 97% 29.88 in 0.2 mi SSE 6.9 mph - 0.00 in   Light Drizzle
6:53 AM 64.9 °F 64.9 °F 100% 29.91 in 0.2 mi South 4.6 mph - 0.00 in   Light Drizzle
7:53 AM 64.9 °F 64.9 °F 100% 29.93 in 0.2 mi SSE 3.5 mph - 0.00 in   Light Drizzle
8:53 AM 66.9 °F 66.0 °F 97% 29.95 in 0.8 mi SE 4.6 mph - 0.00 in   Overcast
9:17 AM 66.9 °F 66.0 °F 97% 29.97 in 1.5 mi SSE 6.9 mph - N/A   Overcast
9:36 AM 68.0 °F 66.9 °F 96% 29.97 in 2.0 mi SSE 8.1 mph - N/A   Overcast
9:53 AM 68.0 °F 66.0 °F 93% 29.97 in 2.0 mi SSE 3.5 mph - N/A   Overcast
9:55 AM 68.0 °F 66.0 °F 93% 29.99 in 4.0 mi South 4.6 mph - N/A   Mostly Cloudy
10:31 AM 70.0 °F 64.9 °F 84% 29.99 in 7.0 mi South 8.1 mph - N/A   Overcast
10:53 AM 71.1 °F 64.9 °F 81% 29.99 in 10.0 mi SW 4.6 mph - N/A   Overcast
11:18 AM 72.0 °F 64.9 °F 78% 30.01 in 10.0 mi WNW 4.6 mph - N/A   Overcast
11:53 AM 73.0 °F 64.9 °F 76% 29.96 in 10.0 mi ESE 5.8 mph - N/A   Overcast
12:18 PM 73.0 °F 64.9 °F 76% 29.97 in 10.0 mi SE 4.6 mph - N/A   Overcast
12:53 PM 73.9 °F 64.0 °F 71% 29.97 in 10.0 mi Variable 5.8 mph - N/A   Overcast
1:32 PM 75.0 °F 64.9 °F 71% 29.95 in 10.0 mi SSE 10.4 mph - N/A   Overcast
1:53 PM 75.0 °F 64.0 °F 69% 29.94 in 10.0 mi SSW 10.4 mph - N/A   Overcast
2:53 PM 75.0 °F 64.9 °F 71% 29.91 in 10.0 mi SSW 8.1 mph - N/A   Overcast
3:18 PM 75.9 °F 66.0 °F 71% 29.93 in 10.0 mi WSW 6.9 mph - N/A   Overcast
3:53 PM 75.0 °F 66.0 °F 73% 29.92 in 9.0 mi WSW 4.6 mph - N/A   Overcast
4:53 PM 75.9 °F 64.9 °F 69% 29.91 in 10.0 mi Calm Calm - N/A   Overcast
5:53 PM 75.9 °F 64.9 °F 69% 29.88 in 10.0 mi South 8.1 mph - N/A   Overcast
6:53 PM 75.0 °F 64.9 °F 71% 29.90 in 10.0 mi Calm Calm - N/A   Overcast
7:53 PM 72.0 °F 64.0 °F 76% 29.93 in 10.0 mi Calm Calm - N/A   Overcast
8:53 PM 69.1 °F 64.0 °F 84% 29.95 in 10.0 mi Calm Calm - N/A   Scattered Clouds
9:53 PM 66.0 °F 59.0 °F 78% 29.98 in 10.0 mi NNE 11.5 mph - N/A   Scattered Clouds
10:53 PM 63.0 °F 55.0 °F 75% 30.01 in 10.0 mi NNE 15.0 mph - N/A   Mostly Cloudy
11:53 PM 61.0 °F 53.1 °F 75% 30.02 in 10.0 mi NNE 8.1 mph - N/A   Scattered Clouds